HVK374 ENGM-ESSA

Flight info

Callsign HVK374
Flight time N/A
Altitude 31000
Route MASEV Z183 LEGPO DCT ELTOK
Aircraft A400/H-SDE2E3FGHIJ4J5M1RWXY/LB1D1

Departure

Time 2026-05-05 15:07
Airport Oslo-Gardermoen International Airport (ENGM)

Arrival

Time N/A
Airport Stockholm-Arlanda Airport (ESSA)
Time Latitude Longitude Altitude Speed Heading
2026-05-05 14:45 60.20796 11.09661 683 ft 0 kts 17°
2026-05-05 14:55 60.20796 11.09662 683 ft 0 kts 17°
2026-05-05 15:00 60.20848 11.09612 685 ft 3 kts 243°
2026-05-05 15:00 60.20812 11.09569 685 ft 15 kts 203°
2026-05-05 15:01 60.20768 11.09452 685 ft 6 kts 275°
2026-05-05 15:01 60.20786 11.09292 684 ft 15 kts 266°
2026-05-05 15:01 60.20733 11.09221 685 ft 11 kts 195°
2026-05-05 15:01 60.20625 11.09160 685 ft 4 kts 196°
2026-05-05 15:02 60.20591 11.09141 685 ft 44 kts 196°
2026-05-05 15:02 60.20279 11.08954 686 ft 38 kts 193°
2026-05-05 15:02 60.20045 11.08825 687 ft 32 kts 196°
2026-05-05 15:02 60.19899 11.08736 687 ft 6 kts 196°
2026-05-05 15:03 60.19893 11.08733 687 ft 16 kts 196°
2026-05-05 15:03 60.19653 11.08596 688 ft 44 kts 195°
2026-05-05 15:03 60.19330 11.08415 684 ft 52 kts 196°
2026-05-05 15:03 60.18965 11.08205 688 ft 56 kts 197°
2026-05-05 15:04 60.18610 11.08001 686 ft 40 kts 195°
2026-05-05 15:04 60.18552 11.07779 689 ft 23 kts 285°
2026-05-05 15:04 60.18563 11.07689 687 ft 0 kts 284°
2026-05-05 15:04 60.18564 11.07684 687 ft 5 kts 284°
2026-05-05 15:05 60.18692 11.07486 684 ft 2 kts 13°
2026-05-05 15:05 60.18707 11.07495 687 ft 0 kts 15°
2026-05-05 15:06 60.18758 11.07522 690 ft 42 kts 15°
2026-05-05 15:06 60.19493 11.07920 727 ft 166 kts 14°
2026-05-05 15:07 60.20758 11.08609 1218 ft 208 kts 15°
2026-05-05 15:07 60.22264 11.09428 1875 ft 242 kts 14°
2026-05-05 15:07 60.24012 11.10362 2547 ft 272 kts 15°
2026-05-05 15:07 60.25879 11.11071 3827 ft 269 kts
2026-05-05 15:08 60.27716 11.11190 5314 ft 267 kts
2026-05-05 15:08 60.29574 11.11727 6365 ft 272 kts 13°
2026-05-05 15:08 60.31355 11.13115 6933 ft 277 kts 28°
2026-05-05 15:08 60.32926 11.15412 7119 ft 279 kts 43°
2026-05-05 15:09 60.34151 11.18463 7137 ft 280 kts 58°
2026-05-05 15:09 60.34950 11.22033 7136 ft 280 kts 72°
2026-05-05 15:09 60.35285 11.25892 7142 ft 279 kts 87°
2026-05-05 15:09 60.35277 11.29810 7142 ft 280 kts 91°
2026-05-05 15:10 60.35341 11.33691 7138 ft 280 kts 83°
2026-05-05 15:10 60.35800 11.37503 7135 ft 280 kts 69°
2026-05-05 15:10 60.36590 11.41100 7134 ft 280 kts 64°
2026-05-05 15:10 60.37467 11.44617 7138 ft 280 kts 63°
2026-05-05 15:11 60.38360 11.48128 7136 ft 280 kts 63°
2026-05-05 15:11 60.39238 11.51590 7137 ft 280 kts 63°
2026-05-05 15:11 60.40087 11.55126 7136 ft 279 kts 66°
2026-05-05 15:11 60.40699 11.58881 7137 ft 279 kts 77°
2026-05-05 15:12 60.40947 11.62779 7134 ft 279 kts 88°
2026-05-05 15:12 60.40809 11.66649 7137 ft 279 kts 99°
2026-05-05 15:12 60.40288 11.70433 7140 ft 279 kts 111°
2026-05-05 15:12 60.39457 11.73996 7140 ft 279 kts 118°
2026-05-05 15:13 60.38532 11.77456 7136 ft 280 kts 119°
2026-05-05 15:13 60.37594 11.80896 7136 ft 280 kts 119°
2026-05-05 15:13 60.36654 11.84348 7134 ft 280 kts 119°
2026-05-05 15:13 60.35725 11.87774 7141 ft 280 kts 119°
2026-05-05 15:14 60.34792 11.91224 7176 ft 280 kts 118°
2026-05-05 15:14 60.33834 11.94765 7709 ft 295 kts 118°
2026-05-05 15:14 60.32841 11.98435 8966 ft 295 kts 118°
2026-05-05 15:14 60.31863 12.02045 10466 ft 292 kts 119°
2026-05-05 15:15 60.30888 12.05641 11651 ft 301 kts 119°
2026-05-05 15:15 60.29870 12.09391 12803 ft 308 kts 119°
2026-05-05 15:15 60.28827 12.13229 13969 ft 314 kts 119°
2026-05-05 15:15 60.27764 12.17131 15108 ft 320 kts 119°
2026-05-05 15:16 60.26680 12.21103 16233 ft 326 kts 119°
2026-05-05 15:16 60.25573 12.25153 17345 ft 332 kts 119°
2026-05-05 15:16 60.24448 12.29261 18296 ft 338 kts 119°
2026-05-05 15:16 60.23298 12.33450 18881 ft 344 kts 119°
2026-05-05 15:17 60.22133 12.37689 19113 ft 347 kts 119°
2026-05-05 15:17 60.20979 12.41881 19080 ft 348 kts 119°
2026-05-05 15:17 60.19788 12.46205 19369 ft 358 kts 119°
2026-05-05 15:17 60.18675 12.50722 20360 ft 360 kts 113°
2026-05-05 15:18 60.17840 12.55477 21533 ft 360 kts 105°
2026-05-05 15:18 60.17309 12.60420 22547 ft 363 kts 100°
2026-05-05 15:18 60.16919 12.65475 23489 ft 366 kts 97°
2026-05-05 15:18 60.16613 12.69948 26290 ft 287 kts 99°
2026-05-05 15:19 60.16257 12.73478 28999 ft 237 kts 105°
2026-05-05 15:19 60.15885 12.76433 31001 ft 211 kts 103°